�v������,���r���O(���x),�����t���O,���r���O(���x),�����t���O,�L�b�`��(���x),�����t���O,��1(���x),�����t���O,��2���x),�����t���O,�O�C���x,�����t���O,�O�C���x,�����t���O,�������x,�����t���O,�C�ۑ�(���x),�����t���O,�C�ۑ�(���x),�����t���O
11/1/2003 0:00,0,2,0,2,22.5,0,23,0,20.6,0,0,2,0,2,19.6,0,16.4,0,74.8,0
11/1/2003 0:15,0,2,0,2,22.5,0,23.1,0,20.7,0,0,2,0,2,19.7,0,16.3,0,74.6,0
11/1/2003 0:30,0,2,0,2,22.4,0,23.1,0,20.7,0,0,2,0,2,19.7,0,16.3,0,74.3,0
11/1/2003 0:45,0,2,0,2,22.4,0,23,0,20.7,0,0,2,0,2,19.8,0,16.2,0,74.1,0
11/1/2003 1:00,0,2,0,2,22.3,0,22.9,0,20.7,0,0,2,0,2,19.9,0,16.2,0,73.8,0
11/1/2003 1:15,0,2,0,2,22.2,0,22.9,0,20.7,0,0,2,0,2,20,0,16.1,0,74.3,0
11/1/2003 1:30,0,2,0,2,22.2,0,22.8,0,20.7,0,0,2,0,2,20.1,0,16,0,74.8,0
11/1/2003 1:45,0,2,0,2,22.1,0,22.7,0,20.7,0,0,2,0,2,20.1,0,15.9,0,75.3,0
11/1/2003 2:00,0,2,0,2,22.1,0,22.6,0,20.7,0,0,2,0,2,20.2,0,15.8,0,75.8,0
11/1/2003 2:15,0,2,0,2,22,0,22.6,0,20.6,0,0,2,0,2,20.3,0,15.7,0,76.1,0
11/1/2003 2:30,0,2,0,2,21.9,0,22.5,0,20.6,0,0,2,0,2,20.4,0,15.7,0,76.3,0
11/1/2003 2:45,0,2,0,2,21.8,0,22.4,0,20.6,0,0,2,0,2,20.5,0,15.6,0,76.6,0
11/1/2003 3:00,0,2,0,2,21.7,0,22.3,0,20.6,0,0,2,0,2,20.5,0,15.6,0,76.8,0
11/1/2003 3:15,0,2,0,2,21.6,0,22.3,0,20.6,0,0,2,0,2,20.6,0,15.6,0,75.8,0
11/1/2003 3:30,0,2,0,2,21.6,0,22.2,0,20.5,0,0,2,0,2,20.7,0,15.5,0,74.8,0
11/1/2003 3:45,0,2,0,2,21.6,0,22.1,0,20.5,0,0,2,0,2,20.8,0,15.5,0,73.8,0
11/1/2003 4:00,0,2,0,2,21.4,0,22.1,0,20.5,0,0,2,0,2,20.8,0,15.5,0,72.8,0
11/1/2003 4:15,0,2,0,2,21.4,0,22,0,20.5,0,0,2,0,2,20.9,0,15.5,0,72.3,0
11/1/2003 4:30,0,2,0,2,21.4,0,22,0,20.4,0,0,2,0,2,21,0,15.5,0,71.8,0
11/1/2003 4:45,0,2,0,2,21.4,0,21.9,0,20.4,0,0,2,0,2,21,0,15.5,0,71.3,0
11/1/2003 5:00,0,2,0,2,21.2,0,21.9,0,20.4,0,0,2,0,2,21.1,0,15.5,0,70.8,0
11/1/2003 5:15,0,2,0,2,21.2,0,21.8,0,20.3,0,0,2,0,2,21.2,0,15.5,0,70.6,0
11/1/2003 5:30,0,2,0,2,21.2,0,21.8,0,20.3,0,0,2,0,2,21.2,0,15.5,0,70.3,0
11/1/2003 5:45,0,2,0,2,21.1,0,21.7,0,20.3,0,0,2,0,2,21.3,0,15.6,0,70.1,0
11/1/2003 6:00,0,2,0,2,21,0,21.7,0,20.2,0,0,2,0,2,21.3,0,15.6,0,69.8,0
11/1/2003 6:15,0,2,0,2,21,0,21.6,0,20.2,0,0,2,0,2,21.4,0,15.1,0,73.3,0
11/1/2003 6:30,0,2,0,2,21,0,21.6,0,20.2,0,0,2,0,2,21.4,0,14.6,0,76.8,0
11/1/2003 6:45,0,2,0,2,20.9,0,21.6,0,20.2,0,0,2,0,2,21.5,0,14.2,0,80.3,0
11/1/2003 7:00,0,2,0,2,20.9,0,21.6,0,20.2,0,0,2,0,2,19.3,0,13.7,0,83.8,0
11/1/2003 7:15,0,2,0,2,23,0,21.8,0,20.1,0,0,2,0,2,18.9,0,13.7,0,84.6,0
11/1/2003 7:30,0,2,0,2,25.5,0,22.6,0,20,0,0,2,0,2,19,0,13.7,0,85.3,0
11/1/2003 7:45,0,2,0,2,23.8,0,22.7,0,20,0,0,2,0,2,19,0,13.8,0,86.1,0
11/1/2003 8:00,0,2,0,2,22.6,0,22.6,0,19.9,0,0,2,0,2,19.1,0,13.8,0,86.8,0
11/1/2003 8:15,0,2,0,2,21.9,0,22.5,0,19.9,0,0,2,0,2,19.2,0,13.9,0,86.8,0
11/1/2003 8:30,0,2,0,2,21.6,0,22.3,0,19.9,0,0,2,0,2,19.3,0,13.9,0,86.8,0
11/1/2003 8:45,0,2,0,2,21.4,0,22.1,0,19.9,0,0,2,0,2,18.8,0,14,0,86.8,0
11/1/2003 9:00,0,2,0,2,21.3,0,22.1,0,19.9,0,0,2,0,2,18.8,0,14.1,0,86.8,0
11/1/2003 9:15,0,2,0,2,21.2,0,22,0,20.1,0,0,2,0,2,18.9,0,14.4,0,86.1,0
11/1/2003 9:30,0,2,0,2,21.3,0,22,0,20,0,0,2,0,2,18.9,0,14.7,0,85.3,0
11/1/2003 9:45,0,2,0,2,21.3,0,22,0,20,0,0,2,0,2,19,0,15,0,84.6,0
11/1/2003 10:00,0,2,0,2,21.2,0,22,0,19.9,0,0,2,0,2,19.1,0,15.3,0,83.8,0
11/1/2003 10:15,0,2,0,2,21.2,0,22,0,19.9,0,0,2,0,2,19.2,0,15.5,0,83.6,0
11/1/2003 10:30,0,2,0,2,21.2,0,22,0,19.9,0,0,2,0,2,19.2,0,15.6,0,83.3,0
11/1/2003 10:45,0,2,0,2,21.2,0,22,0,19.8,0,0,2,0,2,19.3,0,15.8,0,83.1,0
11/1/2003 11:00,0,2,0,2,21.2,0,22,0,19.9,0,0,2,0,2,19.4,0,16,0,82.8,0
11/1/2003 11:15,0,2,0,2,21.2,0,22,0,19.9,0,0,2,0,2,19.5,0,16.1,0,82.6,0
11/1/2003 11:30,0,2,0,2,21.2,0,22,0,19.9,0,0,2,0,2,19.5,0,16.1,0,82.3,0
11/1/2003 11:45,0,2,0,2,21.3,0,22.1,0,19.9,0,0,2,0,2,19.6,0,16.2,0,82.1,0
11/1/2003 12:00,0,2,0,2,21.3,0,22.1,0,19.9,0,0,2,0,2,19.7,0,16.3,0,81.8,0
11/1/2003 12:15,0,2,0,2,21.3,0,22.1,0,19.9,0,0,2,0,2,19.7,0,16.5,0,81.3,0
11/1/2003 12:30,0,2,0,2,21.3,0,22.1,0,19.9,0,0,2,0,2,19.8,0,16.6,0,80.8,0
11/1/2003 12:45,0,2,0,2,21.3,0,22.1,0,19.9,0,0,2,0,2,19.9,0,16.8,0,80.3,0
11/1/2003 13:00,0,2,0,2,21.4,0,22.2,0,19.9,0,0,2,0,2,19.9,0,17,0,79.8,0
11/1/2003 13:15,0,2,0,2,21.5,0,22.3,0,19.9,0,0,2,0,2,20,0,17.2,0,79.6,0
11/1/2003 13:30,0,2,0,2,21.6,0,22.5,0,20.1,0,0,2,0,2,20.1,0,17.4,0,79.3,0
11/1/2003 13:45,0,2,0,2,21.8,0,22.7,0,20.3,0,0,2,0,2,20.2,0,17.6,0,79.1,0
11/1/2003 14:00,0,2,0,2,22.1,0,22.9,0,20.5,0,0,2,0,2,19.1,0,17.8,0,78.8,0
11/1/2003 14:15,0,2,0,2,21.9,0,22.6,0,20.5,0,0,2,0,2,19.2,0,18.2,0,78.3,0
11/1/2003 14:30,0,2,0,2,21.9,0,22.6,0,20.6,0,0,2,0,2,19.3,0,18.6,0,77.8,0
11/1/2003 14:45,0,2,0,2,21.7,0,22.4,0,20.6,0,0,2,0,2,19.3,0,19.1,0,77.3,0
11/1/2003 15:00,0,2,0,2,21.9,0,22.4,0,20.7,0,0,2,0,2,19.4,0,19.5,0,76.8,0
11/1/2003 15:15,0,2,0,2,21.8,0,22.4,0,20.6,0,0,2,0,2,19.5,0,19.5,0,77.6,0
11/1/2003 15:30,0,2,0,2,21.9,0,22.5,0,20.6,0,0,2,0,2,19.6,0,19.5,0,78.3,0
11/1/2003 15:45,0,2,0,2,22,0,22.6,0,20.6,0,0,2,0,2,19.1,0,19.5,0,79.1,0
11/1/2003 16:00,0,2,0,2,22.1,0,22.7,0,20.6,0,0,2,0,2,19.2,0,19.5,0,79.8,0
11/1/2003 16:15,0,2,0,2,22.1,0,22.7,0,20.6,0,0,2,0,2,19.3,0,19.5,0,80.3,0
11/1/2003 16:30,0,2,0,2,22.1,0,22.7,0,20.6,0,0,2,0,2,19.4,0,19.5,0,80.8,0
11/1/2003 16:45,0,2,0,2,22.2,0,22.8,0,20.6,0,0,2,0,2,19,0,19.6,0,81.3,0
11/1/2003 17:00,0,2,0,2,22.3,0,22.8,0,20.6,0,0,2,0,2,19.1,0,19.6,0,81.8,0
11/1/2003 17:15,0,2,0,2,22.2,0,22.8,0,20.6,0,0,2,0,2,19.2,0,19.7,0,81.8,0
11/1/2003 17:30,0,2,0,2,22.2,0,22.8,0,20.6,0,0,2,0,2,19.2,0,19.7,0,81.8,0
11/1/2003 17:45,0,2,0,2,22.2,0,22.8,0,20.6,0,0,2,0,2,19.3,0,19.8,0,81.8,0
11/1/2003 18:00,0,2,0,2,22.3,0,22.9,0,20.6,0,0,2,0,2,19.4,0,19.9,0,81.8,0
11/1/2003 18:15,0,2,0,2,27.8,0,23.2,0,20.6,0,0,2,0,2,19.5,0,19.8,0,82.8,0
11/1/2003 18:30,0,2,0,2,29.3,0,23.9,0,20.6,0,0,2,0,2,19.1,0,19.6,0,83.8,0
11/1/2003 18:45,0,2,0,2,27.9,0,24,0,20.6,0,0,2,0,2,18.9,0,19.5,0,84.8,0
11/1/2003 19:00,0,2,0,2,26.3,0,23.9,0,20.6,0,0,2,0,2,18.9,0,19.4,0,85.8,0
11/1/2003 19:15,0,2,0,2,25,0,23.8,0,20.6,0,0,2,0,2,19,0,19.2,0,85.3,0
11/1/2003 19:30,0,2,0,2,24.3,0,23.7,0,20.6,0,0,2,0,2,19.1,0,19.1,0,84.8,0
11/1/2003 19:45,0,2,0,2,23.9,0,23.7,0,20.6,0,0,2,0,2,19.2,0,18.9,0,84.3,0
11/1/2003 20:00,0,2,0,2,23.6,0,23.6,0,20.5,0,0,2,0,2,19.3,0,18.8,0,83.8,0
11/1/2003 20:15,0,2,0,2,23.4,0,23.6,0,20.5,0,0,2,0,2,19.4,0,18.6,0,83.3,0
11/1/2003 20:30,0,2,0,2,23.3,0,23.6,0,20.5,0,0,2,0,2,19.4,0,18.3,0,82.8,0
11/1/2003 20:45,0,2,0,2,23.2,0,23.6,0,20.5,0,0,2,0,2,19.5,0,18.1,0,82.3,0
11/1/2003 21:00,0,2,0,2,23.2,0,23.6,0,20.4,0,0,2,0,2,19,0,17.9,0,81.8,0
11/1/2003 21:15,0,2,0,2,23,0,23.5,0,20.4,0,0,2,0,2,19,0,17.7,0,81.1,0
11/1/2003 21:30,0,2,0,2,23,0,23.5,0,20.4,0,0,2,0,2,18.7,0,17.6,0,80.3,0
11/1/2003 21:45,0,2,0,2,22.9,0,23.5,0,20.3,0,0,2,0,2,18.8,0,17.4,0,79.6,0
11/1/2003 22:00,0,2,0,2,22.9,0,23.4,0,20.3,0,0,2,0,2,18.9,0,17.3,0,78.8,0
11/1/2003 22:15,0,2,0,2,22.8,0,23.4,0,20.3,0,0,2,0,2,18.9,0,17.2,0,79.6,0
11/1/2003 22:30,0,2,0,2,22.7,0,23.4,0,20.2,0,0,2,0,2,19,0,17.1,0,80.3,0
11/1/2003 22:45,0,2,0,2,22.7,0,23.3,0,20.3,0,0,2,0,2,19.1,0,17,0,81.1,0
11/1/2003 23:00,0,2,0,2,22.6,0,23.3,0,20.4,0,0,2,0,2,19.2,0,16.9,0,81.8,0
11/1/2003 23:15,0,2,0,2,22.4,0,23.2,0,20.3,0,0,2,0,2,19.3,0,16.7,0,81.8,0
11/1/2003 23:30,0,2,0,2,22.4,0,23.2,0,20.4,0,0,2,0,2,19.4,0,16.5,0,81.8,0
11/1/2003 23:45,0,2,0,2,22.4,0,23.2,0,20.4,0,0,2,0,2,19.4,0,16.4,0,81.8,0
11/2/2003 0:00,0,2,0,2,22.4,0,23.1,0,20.4,0,0,2,0,2,19.5,0,16.2,0,81.8,0
11/2/2003 0:15,0,2,0,2,22.3,0,23,0,20.4,0,0,2,0,2,19.6,0,16.1,0,82.1,0
11/2/2003 0:30,0,2,0,2,22.2,0,22.8,0,20.4,0,0,2,0,2,19.7,0,15.9,0,82.3,0
11/2/2003 0:45,0,2,0,2,22.1,0,22.7,0,20.4,0,0,2,0,2,19.7,0,15.8,0,82.6,0
11/2/2003 1:00,0,2,0,2,22,0,22.6,0,20.4,0,0,2,0,2,19.8,0,15.7,0,82.8,0
11/2/2003 1:15,0,2,0,2,21.9,0,22.5,0,20.4,0,0,2,0,2,19.9,0,15.6,0,83.1,0
11/2/2003 1:30,0,2,0,2,21.8,0,22.4,0,20.4,0,0,2,0,2,20,0,15.4,0,83.3,0
11/2/2003 1:45,0,2,0,2,21.7,0,22.4,0,20.4,0,0,2,0,2,20,0,15.3,0,83.6,0
11/2/2003 2:00,0,2,0,2,21.6,0,22.3,0,20.4,0,0,2,0,2,20.1,0,15.2,0,83.8,0
11/2/2003 2:15,0,2,0,2,21.5,0,22.2,0,20.4,0,0,2,0,2,20.2,0,15.2,0,83.8,0
11/2/2003 2:30,0,2,0,2,21.4,0,22.2,0,20.3,0,0,2,0,2,20.3,0,15.1,0,83.8,0
11/2/2003 2:45,0,2,0,2,21.3,0,22,0,20.3,0,0,2,0,2,20.4,0,15.1,0,83.8,0
11/2/2003 3:00,0,2,0,2,21.2,0,21.9,0,20.3,0,0,2,0,2,20.4,0,15.1,0,83.8,0
11/2/2003 3:15,0,2,0,2,21.2,0,21.9,0,20.3,0,0,2,0,2,20.5,0,15.1,0,83.8,0
11/2/2003 3:30,0,2,0,2,21.1,0,21.8,0,20.2,0,0,2,0,2,20.6,0,15,0,83.8,0
11/2/2003 3:45,0,2,0,2,21,0,21.7,0,20.2,0,0,2,0,2,20.7,0,15,0,83.8,0
11/2/2003 4:00,0,2,0,2,20.9,0,21.7,0,20.1,0,0,2,0,2,20.7,0,15,0,83.8,0
11/2/2003 4:15,0,2,0,2,20.8,0,21.6,0,20.1,0,0,2,0,2,20.8,0,15,0,83.6,0
11/2/2003 4:30,0,2,0,2,20.8,0,21.5,0,20,0,0,2,0,2,20.9,0,15,0,83.3,0
11/2/2003 4:45,0,2,0,2,20.6,0,21.4,0,20,0,0,2,0,2,20.9,0,15.1,0,83.1,0
11/2/2003 5:00,0,2,0,2,20.6,0,21.4,0,20,0,0,2,0,2,21,0,15.1,0,82.8,0
11/2/2003 5:15,0,2,0,2,20.6,0,21.3,0,19.9,0,0,2,0,2,21,0,15,0,83.1,0
11/2/2003 5:30,0,2,0,2,20.5,0,21.2,0,19.9,0,0,2,0,2,21.1,0,14.9,0,83.3,0
11/2/2003 5:45,0,2,0,2,20.3,0,21.2,0,19.8,0,0,2,0,2,21.2,0,14.9,0,83.6,0
11/2/2003 6:00,0,2,0,2,20.3,0,21.1,0,19.8,0,0,2,0,2,21.2,0,14.8,0,83.8,0
11/2/2003 6:15,0,2,0,2,20.2,0,21,0,19.8,0,0,2,0,2,21.3,0,14.9,0,83.6,0
11/2/2003 6:30,0,2,0,2,20.2,0,21,0,19.8,0,0,2,0,2,21.3,0,14.9,0,83.3,0
11/2/2003 6:45,0,2,0,2,20.2,0,21,0,19.7,0,0,2,0,2,19.9,0,15,0,83.1,0
11/2/2003 7:00,0,2,0,2,25.2,0,21.4,0,19.7,0,0,2,0,2,19.5,0,15.1,0,82.8,0
11/2/2003 7:15,0,2,0,2,23.7,0,21.4,0,19.6,0,0,2,0,2,18.9,0,15.3,0,81.8,0
11/2/2003 7:30,0,2,0,2,26.7,0,21.6,0,19.6,0,0,2,0,2,19,0,15.6,0,80.8,0
11/2/2003 7:45,0,2,0,2,24.5,0,21.6,0,19.6,0,0,2,0,2,19.1,0,15.8,0,79.8,0
11/2/2003 8:00,0,2,0,2,23.3,0,21.6,0,19.7,0,0,2,0,2,19.1,0,16.1,0,78.8,0
11/2/2003 8:15,0,2,0,2,22.6,0,21.7,0,19.7,0,0,2,0,2,19.2,0,16.5,0,77.3,0
11/2/2003 8:30,0,2,0,2,22.2,0,21.8,0,19.7,0,0,2,0,2,19.3,0,16.9,0,75.8,0
11/2/2003 8:45,0,2,0,2,22,0,21.9,0,19.8,0,0,2,0,2,19.3,0,17.3,0,74.3,0
11/2/2003 9:00,0,2,0,2,21.8,0,22.1,0,19.9,0,0,2,0,2,19.4,0,17.7,0,72.8,0
11/2/2003 9:15,0,2,0,2,21.8,0,22.2,0,20,0,0,2,0,2,18.8,0,18.2,0,71.8,0
11/2/2003 9:30,0,2,0,2,21.8,0,22.4,0,20.2,0,0,2,0,2,18.8,0,18.7,0,70.8,0
11/2/2003 9:45,0,2,0,2,21.9,0,22.6,0,20.3,0,0,2,0,2,18.9,0,19.3,0,69.8,0
11/2/2003 10:00,0,2,0,2,22.1,0,22.8,0,20.6,0,0,2,0,2,19,0,19.8,0,68.8,0
11/2/2003 10:15,0,2,0,2,22.2,0,22.9,0,20.8,0,0,2,0,2,19.1,0,20.1,0,67.3,0
11/2/2003 10:30,0,2,0,2,22.4,0,23.2,0,21,0,0,2,0,2,19.1,0,20.4,0,65.8,0
11/2/2003 10:45,0,2,0,2,22.6,0,23.3,0,21.3,0,0,2,0,2,19.2,0,20.8,0,64.3,0
11/2/2003 11:00,0,2,0,2,22.8,0,23.5,0,21.5,0,0,2,0,2,19.3,0,21.1,0,62.8,0
11/2/2003 11:15,0,2,0,2,23.1,0,23.7,0,21.7,0,0,2,0,2,19.4,0,21.1,0,63,0
11/2/2003 11:30,0,2,0,2,23.3,0,23.9,0,21.9,0,0,2,0,2,19.4,0,21,0,63.3,0
11/2/2003 11:45,0,2,0,2,23.5,0,24.1,0,22.1,0,0,2,0,2,19.5,0,21,0,63.5,0
11/2/2003 12:00,0,2,0,2,23.7,0,24.3,0,22.3,0,0,2,0,2,19.6,0,21,0,63.8,0
11/2/2003 12:15,0,2,0,2,24,0,24.5,0,22.5,0,0,2,0,2,19.7,0,21,0,63.8,0
11/2/2003 12:30,0,2,0,2,24.3,0,24.8,0,22.7,0,0,2,0,2,19.8,0,21,0,63.8,0
11/2/2003 12:45,0,2,0,2,24.6,0,25.2,0,22.9,0,0,2,0,2,19.8,0,21.1,0,63.8,0
11/2/2003 13:00,0,2,0,2,24.7,0,25.3,0,23,0,0,2,0,2,19.9,0,21.1,0,63.8,0
11/2/2003 13:15,0,2,0,2,24.8,0,25.4,0,23.1,0,0,2,0,2,20,0,21.2,0,62.8,0
11/2/2003 13:30,0,2,0,2,25,0,25.7,0,23.1,0,0,2,0,2,20.1,0,21.4,0,61.8,0
11/2/2003 13:45,0,2,0,2,25.2,0,25.9,0,23.2,0,0,2,0,2,20.2,0,21.5,0,60.8,0
11/2/2003 14:00,0,2,0,2,25.2,0,25.9,0,23.3,0,0,2,0,2,20.3,0,21.7,0,59.8,0
11/2/2003 14:15,0,2,0,2,25.5,0,26.1,0,23.3,0,0,2,0,2,20.4,0,21.7,0,59.5,0
11/2/2003 14:30,0,2,0,2,25.7,0,26.2,0,23.4,0,0,2,0,2,20.5,0,21.7,0,59.3,0
11/2/2003 14:45,0,2,0,2,25.9,0,26.4,0,23.5,0,0,2,0,2,20.6,0,21.8,0,59,0
11/2/2003 15:00,0,2,0,2,26.1,0,26.6,0,23.6,0,0,2,0,2,20.7,0,21.8,0,58.8,0
11/2/2003 15:15,0,2,0,2,26.1,0,26.6,0,23.6,0,0,2,0,2,20.8,0,21.6,0,59.5,0
11/2/2003 15:30,0,2,0,2,26.1,0,26.6,0,23.6,0,0,2,0,2,20.9,0,21.4,0,60.3,0
11/2/2003 15:45,0,2,0,2,26.1,0,26.6,0,23.6,0,0,2,0,2,21,0,21.2,0,61,0
11/2/2003 16:00,0,2,0,2,26.1,0,26.6,0,23.5,0,0,2,0,2,21.1,0,21,0,61.8,0
11/2/2003 16:15,0,2,0,2,25.9,0,26.4,0,23.4,0,0,2,0,2,21.2,0,20.7,0,63.3,0
11/2/2003 16:30,0,2,0,2,25.8,0,26.2,0,23.3,0,0,2,0,2,21.2,0,20.5,0,64.8,0
11/2/2003 16:45,0,2,0,2,25.7,0,26.1,0,23.2,0,0,2,0,2,21.3,0,20.2,0,66.3,0
11/2/2003 17:00,0,2,0,2,25.6,0,26,0,23.2,0,0,2,0,2,21.4,0,20,0,67.8,0
11/2/2003 17:15,0,2,0,2,25.6,0,25.9,0,23.1,0,0,2,0,2,21.5,0,19.8,0,69.6,0
11/2/2003 17:30,0,2,0,2,25.4,0,25.7,0,23.1,0,0,2,0,2,21.6,0,19.7,0,71.3,0
11/2/2003 17:45,0,2,0,2,25.3,0,25.6,0,23,0,0,2,0,2,21.7,0,19.5,0,73.1,0
11/2/2003 18:00,0,2,0,2,25.2,0,25.4,0,23,0,0,2,0,2,21.8,0,19.4,0,74.8,0
11/2/2003 18:15,0,2,0,2,25.1,0,25.3,0,23,0,0,2,0,2,21.9,0,19.3,0,75.6,0
11/2/2003 18:30,0,2,0,2,25,0,25.4,0,22.9,0,0,2,0,2,21.9,0,19.2,0,76.3,0
11/2/2003 18:45,0,2,0,2,24.9,0,25.4,0,22.9,0,0,2,0,2,22,0,19.1,0,77.1,0
11/2/2003 19:00,0,2,0,2,24.8,0,25.3,0,22.9,0,0,2,0,2,22.1,0,19,0,77.8,0
11/2/2003 19:15,0,2,0,2,24.7,0,25.2,0,22.9,0,0,2,0,2,22.2,0,19,0,77.8,0
11/2/2003 19:30,0,2,0,2,24.7,0,25.2,0,22.8,0,0,2,0,2,22.3,0,19,0,77.8,0
11/2/2003 19:45,0,2,0,2,24.6,0,25.1,0,22.8,0,0,2,0,2,22.3,0,19.1,0,77.8,0
11/2/2003 20:00,0,2,0,2,24.5,0,25.1,0,22.8,0,0,2,0,2,22.4,0,19.1,0,77.8,0
11/2/2003 20:15,0,2,0,2,28,0,25.8,0,22.7,0,0,2,0,2,19.9,0,18.8,0,78.6,0
11/2/2003 20:30,0,2,0,2,27.7,0,26.5,0,22.7,0,0,2,0,2,19.9,0,18.6,0,79.3,0
11/2/2003 20:45,0,2,0,2,26.7,0,26.5,0,22.7,0,0,2,0,2,20,0,18.3,0,80.1,0
11/2/2003 21:00,0,2,0,2,26.1,0,26.5,0,22.6,0,0,2,0,2,20.1,0,18.1,0,80.8,0
11/2/2003 21:15,0,2,0,2,25.5,0,26.3,0,22.6,0,0,2,0,2,20.2,0,18.1,0,81.3,0
11/2/2003 21:30,0,2,0,2,25.2,0,26.2,0,22.5,0,0,2,0,2,19.4,0,18.2,0,81.8,0
11/2/2003 21:45,0,2,0,2,25,0,26,0,22.5,0,0,2,0,2,19.5,0,18.2,0,82.3,0
11/2/2003 22:00,0,2,0,2,24.8,0,25.8,0,22.5,0,0,2,0,2,19.6,0,18.3,0,82.8,0
11/2/2003 22:15,0,2,0,2,24.7,0,25.7,0,22.5,0,0,2,0,2,19.6,0,18.2,0,83.6,0
11/2/2003 22:30,0,2,0,2,24.7,0,25.6,0,22.4,0,0,2,0,2,19.7,0,18.1,0,84.3,0
11/2/2003 22:45,0,2,0,2,24.6,0,25.4,0,22.4,0,0,2,0,2,19.8,0,18.1,0,85.1,0
11/2/2003 23:00,0,2,0,2,24.5,0,25.3,0,22.4,0,0,2,0,2,19.9,0,18,0,85.8,0
11/2/2003 23:15,0,2,0,2,24.4,0,25.1,0,22.4,0,0,2,0,2,20,0,17.9,0,84.8,0
11/2/2003 23:30,0,2,0,2,24.2,0,25,0,22.4,0,0,2,0,2,20.1,0,17.9,0,83.8,0
11/2/2003 23:45,0,2,0,2,24.1,0,24.9,0,22.5,0,0,2,0,2,20.2,0,17.8,0,82.8,0
11/3/2003 0:00,0,2,0,2,24,0,24.8,0,22.5,0,0,2,0,2,20.3,0,17.8,0,81.8,0
11/3/2003 0:15,0,2,0,2,23.9,0,24.8,0,22.5,0,0,2,0,2,20.4,0,17.8,0,82.1,0
11/3/2003 0:30,0,2,0,2,23.8,0,24.7,0,22.6,0,0,2,0,2,20.5,0,17.7,0,82.3,0
11/3/2003 0:45,0,2,0,2,23.7,0,24.6,0,22.6,0,0,2,0,2,20.6,0,17.7,0,82.6,0
11/3/2003 1:00,0,2,0,2,23.6,0,24.4,0,22.5,0,0,2,0,2,20.7,0,17.7,0,82.8,0
11/3/2003 1:15,0,2,0,2,23.5,0,24.3,0,22.5,0,0,2,0,2,20.8,0,17.5,0,82.8,0
11/3/2003 1:30,0,2,0,2,23.4,0,24.3,0,22.5,0,0,2,0,2,20.9,0,17.4,0,82.8,0
11/3/2003 1:45,0,2,0,2,23.3,0,24.2,0,22.5,0,0,2,0,2,20.9,0,17.2,0,82.8,0
11/3/2003 2:00,0,2,0,2,23.2,0,24.1,0,22.4,0,0,2,0,2,21,0,17.1,0,82.8,0
11/3/2003 2:15,0,2,0,2,23.1,0,23.9,0,22.4,0,0,2,0,2,21.1,0,17,0,83.6,0
11/3/2003 2:30,0,2,0,2,23,0,23.8,0,22.4,0,0,2,0,2,21.2,0,16.8,0,84.3,0
11/3/2003 2:45,0,2,0,2,22.9,0,23.8,0,22.4,0,0,2,0,2,21.3,0,16.7,0,85.1,0
11/3/2003 3:00,0,2,0,2,22.9,0,23.7,0,22.4,0,0,2,0,2,21.4,0,16.6,0,85.8,0
11/3/2003 3:15,0,2,0,2,22.8,0,23.6,0,22.3,0,0,2,0,2,21.4,0,16.5,0,86.3,0
11/3/2003 3:30,0,2,0,2,22.7,0,23.6,0,22.3,0,0,2,0,2,21.5,0,16.4,0,86.8,0
11/3/2003 3:45,0,2,0,2,22.6,0,23.4,0,22.2,0,0,2,0,2,21.6,0,16.3,0,87.3,0
11/3/2003 4:00,0,2,0,2,22.6,0,23.4,0,22.2,0,0,2,0,2,21.7,0,16.2,0,87.8,0
11/3/2003 4:15,0,2,0,2,22.5,0,23.3,0,22.1,0,0,2,0,2,21.7,0,16,0,88.3,0
11/3/2003 4:30,0,2,0,2,22.4,0,23.2,0,22.1,0,0,2,0,2,21.8,0,15.9,0,88.8,0
11/3/2003 4:45,0,2,0,2,22.3,0,23.2,0,22.1,0,0,2,0,2,21.9,0,15.7,0,89.3,0
11/3/2003 5:00,0,2,0,2,22.3,0,23.1,0,22,0,0,2,0,2,21.9,0,15.6,0,89.8,0
11/3/2003 5:15,0,2,0,2,22.3,0,23,0,22,0,0,2,0,2,22,0,15.6,0,90.3,0
11/3/2003 5:30,0,2,0,2,22.1,0,22.9,0,21.9,0,0,2,0,2,22,0,15.6,0,90.8,0
11/3/2003 5:45,0,2,0,2,22,0,22.9,0,21.9,0,0,2,0,2,22.1,0,15.7,0,91.3,0
11/3/2003 6:00,0,2,0,2,22,0,22.8,0,21.8,0,0,2,0,2,22.2,0,15.7,0,91.8,0
11/3/2003 6:15,0,2,0,2,22,0,22.8,0,21.8,0,0,2,0,2,22.2,0,15.8,0,91.8,0
11/3/2003 6:30,0,2,0,2,21.8,0,22.7,0,21.8,0,0,2,0,2,22.3,0,15.9,0,91.8,0
11/3/2003 6:45,0,2,0,2,21.8,0,22.7,0,21.7,0,0,2,0,2,22.3,0,16.1,0,91.8,0
11/3/2003 7:00,0,2,0,2,21.8,0,22.6,0,21.7,0,0,2,0,2,22.4,0,16.2,0,91.8,0
11/3/2003 7:15,0,2,0,2,21.7,0,22.6,0,21.7,0,0,2,0,2,22.4,0,16.3,0,91.6,0
11/3/2003 7:30,0,2,0,2,21.6,0,22.6,0,21.7,0,0,2,0,2,22.5,0,16.4,0,91.3,0
11/3/2003 7:45,0,2,0,2,32.9,0,22.9,0,21.6,0,0,2,0,2,19.7,0,16.5,0,91.1,0
11/3/2003 8:00,0,2,0,2,27.3,0,22.9,0,21.5,0,0,2,0,2,19.8,0,16.6,0,90.8,0
11/3/2003 8:15,0,2,0,2,24.8,0,23,0,21.4,0,0,2,0,2,19.8,0,16.7,0,90.6,0
11/3/2003 8:30,0,2,0,2,23.7,0,23,0,21.4,0,0,2,0,2,19.9,0,16.8,0,90.3,0
11/3/2003 8:45,0,2,0,2,24.3,0,23,0,21.3,0,0,2,0,2,20,0,17,0,90.1,0
11/3/2003 9:00,0,2,0,2,23.7,0,23,0,21.3,0,0,2,0,2,20.1,0,17.1,0,89.8,0
11/3/2003 9:15,0,2,0,2,23.2,0,23.1,0,21.3,0,0,2,0,2,20.2,0,17.2,0,89.8,0
11/3/2003 9:30,0,2,0,2,22.9,0,23.1,0,21.3,0,0,2,0,2,20.3,0,17.4,0,89.8,0
11/3/2003 9:45,0,2,0,2,22.7,0,23,0,21.4,0,0,2,0,2,20.3,0,17.5,0,89.8,0
11/3/2003 10:00,0,2,0,2,22.7,0,23.1,0,21.3,0,0,2,0,2,19.2,0,17.7,0,89.8,0
11/3/2003 10:15,0,2,0,2,22.6,0,23.2,0,21.3,0,0,2,0,2,18.9,0,17.7,0,89.3,0
11/3/2003 10:30,0,2,0,2,22.6,0,23.3,0,21.4,0,0,2,0,2,19,0,17.7,0,88.8,0
11/3/2003 10:45,0,2,0,2,22.6,0,23.3,0,21.4,0,0,2,0,2,19.1,0,17.7,0,88.3,0
11/3/2003 11:00,0,2,0,2,22.5,0,23.2,0,21.3,0,0,2,0,2,19.2,0,17.7,0,87.8,0
11/3/2003 11:15,0,2,0,2,22.5,0,23.2,0,21.3,0,0,2,0,2,19.2,0,18,0,87.3,0
11/3/2003 11:30,0,2,0,2,22.5,0,23.2,0,21.3,0,0,2,0,2,19.3,0,18.2,0,86.8,0
11/3/2003 11:45,0,2,0,2,22.5,0,23.2,0,21.3,0,0,2,0,2,19.4,0,18.5,0,86.3,0
11/3/2003 12:00,0,2,0,2,22.4,0,23.2,0,21.3,0,0,2,0,2,19.5,0,18.8,0,85.8,0
11/3/2003 12:15,0,2,0,2,22.4,0,23.2,0,21.3,0,0,2,0,2,19.6,0,19,0,85.6,0
11/3/2003 12:30,0,2,0,2,22.4,0,23.2,0,21.3,0,0,2,0,2,19.6,0,19.2,0,85.3,0
11/3/2003 12:45,0,2,0,2,22.5,0,23.3,0,21.3,0,0,2,0,2,19.7,0,19.4,0,85.1,0
11/3/2003 13:00,0,2,0,2,22.4,0,23.2,0,21.3,0,0,2,0,2,19.8,0,19.6,0,84.8,0
11/3/2003 13:15,0,2,0,2,22.4,0,23.6,0,21.4,0,0,2,0,2,19.9,0,19.9,0,84.8,0
11/3/2003 13:30,0,2,0,2,22.5,0,23.9,0,21.4,0,0,2,0,2,19.9,0,20.2,0,84.8,0
11/3/2003 13:45,0,2,0,2,22.5,0,24,0,21.4,0,0,2,0,2,20,0,20.6,0,84.8,0
11/3/2003 14:00,0,2,0,2,22.6,0,24,0,21.4,0,0,2,0,2,20.1,0,20.9,0,84.8,0
11/3/2003 14:15,0,2,0,2,22.7,0,23.9,0,21.4,0,0,2,0,2,20.2,0,20.9,0,84.8,0
11/3/2003 14:30,0,2,0,2,22.7,0,23.9,0,21.4,0,0,2,0,2,20.3,0,21,0,84.8,0
11/3/2003 14:45,0,2,0,2,22.7,0,23.9,0,21.4,0,0,2,0,2,20.4,0,21,0,84.8,0
11/3/2003 15:00,0,2,0,2,22.8,0,23.9,0,21.5,0,0,2,0,2,19.5,0,21.1,0,84.8,0
11/3/2003 15:15,0,2,0,2,22.8,0,23.9,0,21.5,0,0,2,0,2,19.6,0,20.9,0,85.8,0
11/3/2003 15:30,0,2,0,2,22.8,0,23.9,0,21.5,0,0,2,0,2,19.6,0,20.8,0,86.8,0
11/3/2003 15:45,0,2,0,2,22.8,0,23.9,0,21.5,0,0,2,0,2,19.7,0,20.6,0,87.8,0
11/3/2003 16:00,0,2,0,2,22.9,0,23.8,0,21.5,0,0,2,0,2,19.8,0,20.5,0,88.8,0
11/3/2003 16:15,0,2,0,2,22.9,0,23.8,0,21.5,0,0,2,0,2,19.9,0,20.5,0,88.1,0
11/3/2003 16:30,0,2,0,2,22.8,0,23.8,0,21.5,0,0,2,0,2,20,0,20.5,0,87.3,0
11/3/2003 16:45,0,2,0,2,22.8,0,23.7,0,21.5,0,0,2,0,2,20.1,0,20.6,0,86.6,0
11/3/2003 17:00,0,2,0,2,25,0,23.8,0,21.5,0,0,2,0,2,20.1,0,20.6,0,85.8,0
11/3/2003 17:15,0,2,0,2,24.3,0,23.9,0,21.5,0,0,2,0,2,20.2,0,20.7,0,84.6,0
11/3/2003 17:30,0,2,0,2,23.6,0,23.9,0,21.5,0,0,2,0,2,20.3,0,20.8,0,83.3,0
11/3/2003 17:45,0,2,0,2,23.3,0,23.9,0,21.5,0,0,2,0,2,20.4,0,20.9,0,82.1,0
11/3/2003 18:00,0,2,0,2,23.3,0,23.9,0,21.6,0,0,2,0,2,20.5,0,21,0,80.8,0
11/3/2003 18:15,0,2,0,2,23.3,0,23.9,0,21.6,0,0,2,0,2,20.6,0,20.9,0,80.1,0
11/3/2003 18:30,0,2,0,2,23.3,0,23.9,0,21.6,0,0,2,0,2,20.7,0,20.9,0,79.3,0
11/3/2003 18:45,0,2,0,2,23.3,0,23.9,0,21.6,0,0,2,0,2,20.8,0,20.8,0,78.6,0
11/3/2003 19:00,0,2,0,2,23.3,0,23.9,0,21.6,0,0,2,0,2,20.9,0,20.8,0,77.8,0
11/3/2003 19:15,0,2,0,2,23.3,0,23.9,0,21.6,0,0,2,0,2,20.9,0,20.7,0,78.8,0
11/3/2003 19:30,0,2,0,2,23.3,0,24,0,21.6,0,0,2,0,2,21,0,20.7,0,79.8,0
11/3/2003 19:45,0,2,0,2,23.2,0,24,0,21.6,0,0,2,0,2,21.1,0,20.6,0,80.8,0
11/3/2003 20:00,0,2,0,2,23.2,0,24,0,21.6,0,0,2,0,2,21.2,0,20.6,0,81.8,0
11/3/2003 20:15,0,2,0,2,23.2,0,24,0,21.6,0,0,2,0,2,21.3,0,20.6,0,82.3,0
11/3/2003 20:30,0,2,0,2,23.2,0,24,0,21.6,0,0,2,0,2,21.4,0,20.5,0,82.8,0
11/3/2003 20:45,0,2,0,2,23.2,0,24,0,21.6,0,0,2,0,2,21.4,0,20.5,0,83.3,0
11/3/2003 21:00,0,2,0,2,23.2,0,24,0,21.6,0,0,2,0,2,21.5,0,20.5,0,83.8,0
11/3/2003 21:15,0,2,0,2,23.2,0,24.1,0,21.7,0,0,2,0,2,21.6,0,20.5,0,84.6,0
11/3/2003 21:30,0,2,0,2,23.3,0,24.1,0,21.7,0,0,2,0,2,21.7,0,20.4,0,85.3,0
11/3/2003 21:45,0,2,0,2,23.3,0,24.2,0,21.7,0,0,2,0,2,21.7,0,20.4,0,86.1,0
11/3/2003 22:00,0,2,0,2,23.3,0,24.2,0,21.7,0,0,2,0,2,21.8,0,20.4,0,86.8,0
11/3/2003 22:15,0,2,0,2,23.3,0,24.2,0,21.7,0,0,2,0,2,21.9,0,20.3,0,87.1,0
11/3/2003 22:30,0,2,0,2,23.4,0,24.2,0,21.7,0,0,2,0,2,21.9,0,20.2,0,87.3,0
11/3/2003 22:45,0,2,0,2,23.4,0,24.3,0,21.7,0,0,2,0,2,22,0,20.2,0,87.6,0
11/3/2003 23:00,0,2,0,2,23.4,0,24.3,0,21.8,0,0,2,0,2,22.1,0,20.1,0,87.8,0
11/3/2003 23:15,0,2,0,2,23.2,0,24.3,0,21.9,0,0,2,0,2,22.1,0,19.6,0,86.8,0
11/3/2003 23:30,0,2,0,2,23.2,0,24.2,0,22,0,0,2,0,2,22.2,0,19.2,0,85.8,0
11/3/2003 23:45,0,2,0,2,23.2,0,24.2,0,22,0,0,2,0,2,22.3,0,18.7,0,84.8,0
11/4/2003 0:00,0,2,0,2,23.2,0,24.2,0,22,0,0,2,0,2,22.4,0,18.3,0,83.8,0
11/4/2003 0:15,0,2,0,2,23.1,0,24.1,0,22.1,0,0,2,0,2,22.4,0,18.2,0,84.1,0
11/4/2003 0:30,0,2,0,2,23.1,0,24.1,0,22.1,0,0,2,0,2,22.5,0,18,0,84.3,0
11/4/2003 0:45,0,2,0,2,23.1,0,24,0,22.1,0,0,2,0,2,22.5,0,17.9,0,84.6,0
11/4/2003 1:00,0,2,0,2,23,0,23.9,0,22.1,0,0,2,0,2,22.6,0,17.8,0,84.8,0
11/4/2003 1:15,0,2,0,2,22.9,0,23.9,0,22.1,0,0,2,0,2,22.7,0,17.8,0,84.1,0
11/4/2003 1:30,0,2,0,2,22.8,0,23.8,0,22.1,0,0,2,0,2,22.7,0,17.9,0,83.3,0
11/4/2003 1:45,0,2,0,2,22.8,0,23.8,0,22.1,0,0,2,0,2,22.8,0,17.9,0,82.6,0
11/4/2003 2:00,0,2,0,2,22.7,0,23.7,0,22.1,0,0,2,0,2,22.8,0,18,0,81.8,0
11/4/2003 2:15,0,2,0,2,22.7,0,23.7,0,22.1,0,0,2,0,2,22.9,0,18,0,81.8,0
11/4/2003 2:30,0,2,0,2,22.6,0,23.6,0,22.1,0,0,2,0,2,22.9,0,18,0,81.8,0
11/4/2003 2:45,0,2,0,2,22.5,0,23.6,0,22.1,0,0,2,0,2,23,0,18.1,0,81.8,0
11/4/2003 3:00,0,2,0,2,22.5,0,23.5,0,22.1,0,0,2,0,2,23,0,18.1,0,81.8,0
11/4/2003 3:15,0,2,0,2,22.5,0,23.5,0,22.1,0,0,2,0,2,23.1,0,18,0,82.8,0
11/4/2003 3:30,0,2,0,2,22.4,0,23.4,0,22.1,0,0,2,0,2,23.1,0,17.9,0,83.8,0
11/4/2003 3:45,0,2,0,2,22.3,0,23.4,0,22.1,0,0,2,0,2,23.2,0,17.9,0,84.8,0
11/4/2003 4:00,0,2,0,2,22.3,0,23.4,0,22.1,0,0,2,0,2,23.2,0,17.8,0,85.8,0
11/4/2003 4:15,0,2,0,2,22.3,0,23.3,0,22,0,0,2,0,2,23.3,0,17.8,0,85.3,0
11/4/2003 4:30,0,2,0,2,22.2,0,23.3,0,22,0,0,2,0,2,23.3,0,17.8,0,84.8,0
11/4/2003 4:45,0,2,0,2,22.2,0,23.2,0,22,0,0,2,0,2,23.3,0,17.9,0,84.3,0
11/4/2003 5:00,0,2,0,2,22.2,0,23.2,0,22,0,0,2,0,2,23.4,0,17.9,0,83.8,0
11/4/2003 5:15,0,2,0,2,22.2,0,23.2,0,22,0,0,2,0,2,23.4,0,17.8,0,84.3,0
11/4/2003 5:30,0,2,0,2,22.1,0,23.2,0,21.9,0,0,2,0,2,23.5,0,17.6,0,84.8,0
11/4/2003 5:45,0,2,0,2,22.1,0,23.1,0,21.9,0,0,2,0,2,23.5,0,17.5,0,85.3,0
11/4/2003 6:00,0,2,0,2,22.1,0,23,0,21.9,0,0,2,0,2,23.5,0,17.4,0,85.8,0
11/4/2003 6:15,0,2,0,2,22,0,23,0,21.9,0,0,2,0,2,23.6,0,17.7,0,82.6,0
11/4/2003 6:30,0,2,0,2,22,0,23,0,21.9,0,0,2,0,2,23.6,0,18,0,79.3,0
11/4/2003 6:45,0,2,0,2,33.6,0,23.3,0,21.8,0,0,2,0,2,19.1,0,18.3,0,76.1,0
11/4/2003 7:00,0,2,0,2,27.8,0,23.3,0,21.7,0,0,2,0,2,19.2,0,18.6,0,72.8,0
11/4/2003 7:15,0,2,0,2,24.9,0,23.2,0,21.7,0,0,2,0,2,19.2,0,18.7,0,68.8,0
11/4/2003 7:30,0,2,0,2,23.7,0,23.1,0,21.6,0,0,2,0,2,19.3,0,18.7,0,64.8,0
11/4/2003 7:45,0,2,0,2,23.2,0,23.1,0,21.6,0,0,2,0,2,19.4,0,18.8,0,60.8,0
11/4/2003 8:00,0,2,0,2,22.9,0,23,0,21.6,0,0,2,0,2,19.5,0,18.9,0,56.8,0
11/4/2003 8:15,0,2,0,2,22.4,0,22.8,0,21.4,0,0,2,0,2,19.6,0,19,0,55.3,0
11/4/2003 8:30,0,2,0,2,22.2,0,22.7,0,21.3,0,0,2,0,2,19.6,0,19.1,0,53.8,0